Dewpoint
-8 -2 -2 -2 0 2 1 0 -7 -4 -3 -6 -8 -5 -4 0 4 10 5 7 6 -3 -5 -6 -8 -2 9 11 12 12 10 9 7 5 5 4 5 5 8 7 7 2 0 -1 -0 1 0 1 -0
-9 -6 -4 -3 1 0 3 0 -3 -2 -4 -5 -4 -9 -3 3 5 6 7 8 5 -6 -4 -7 -8 -7 4 10 12 12 11 10 7 5 5 4 5 5 7 7 5 2 0 -0 1 -0 -0 -0 -0
-7 -5 -5 -3 -3 -3 1 -0 -2 -2 -4 -5 -7 -2 -0 3 5 7 8 9 2 -5 -4 -6 -8 -8 -2 7 10 11 11 10 5 5 4 4 8 6 6 7 3 1 1 1 0 -1 -1 -0 -0
-8 -8 -7 -6 -5 -6 -0 -2 -4 -3 -3 -3 -4 1 2 3 5 9 9 9 5 -2 -3 -4 -8 -9 -5 4 8 10 10 8 4 4 2 2 8 8 7 4 1 1 1 0 0 0 0 -0 0
-10 -10 -7 -6 -10 -11 -8 -6 -5 -4 -3 -4 -3 3 3 5 8 9 9 9 9 5 -1 -2 -6 -8 -8 -0 6 9 6 3 4 3 0 2 3 4 4 4 1 1 0 0 0 2 2 2 2
-10 -10 -8 -10 -10 -10 -10 -7 -8 -6 -2 -4 3 4 6 7 8 9 9 9 10 7 2 0 -3 -7 -8 -6 2 5 3 2 2 1 -1 1 2 -0 2 1 1 1 1 3 3 3 2 2 1
-9 -10 -8 -11 -12 -11 -11 -9 -7 -7 -4 -4 -1 7 7 7 8 8 9 10 10 9 3 2 -1 -5 -6 -6 -3 0 1 2 1 0 -2 2 2 -0 0 -0 1 1 2 4 6 5 3 3 2
-11 -11 -10 -11 -11 -13 -8 -9 -9 -8 -6 -4 -1 7 6 7 8 9 9 10 11 11 3 3 2 -1 -5 -5 -4 -3 1 2 1 0 -2 -0 2 0 0 0 0 1 3 5 6 6 4 3 4
-11 -9 -8 -10 -12 -12 -10 -10 -10 -8 -7 -3 -1 4 5 7 8 9 10 11 11 12 4 4 4 2 -3 -5 -5 -3 -1 1 1 1 -1 -2 1 0 0 1 1 2 5 6 6 5 5 5 4
-12 -8 -10 -14 -14 -15 -15 -11 -11 -8 -7 -1 5 5 7 7 8 9 10 11 13 13 5 4 4 4 2 -3 -5 -4 -4 -1 0 1 -0 -2 -1 -0 -0 1 0 2 5 6 5 6 7 6 7
-13 -9 -11 -14 -16 -15 -14 -12 -12 -8 -5 -2 5 8 8 7 8 9 10 11 12 13 9 3 4 5 4 3 -4 -4 -5 -5 -1 -0 -0 -1 -2 -0 7 3 1 -1 2 5 5 3 6 7 8
-13 -14 -13 -13 -14 -15 -14 -13 -12 -11 -8 -6 3 8 8 7 8 9 9 11 12 13 12 5 4 5 5 11 3 -4 -5 -5 -5 -3 -1 -0 5 10 3 4 1 -2 -2 -1 1 2 2 6 8
-14 -14 -15 -14 -14 -14 -13 -13 -13 -12 -11 -10 -1 8 9 8 7 8 8 9 11 12 13 11 6 3 5 12 10 4 -2 -4 -6 -5 -4 -1 5 11 10 9 9 1 -3 -2 -1 0 1 2 4
-14 -15 -15 -14 -15 -14 -14 -13 -13 -12 -11 -10 -5 3 9 8 7 7 7 8 10 11 12 12 11 4 3 7 13 10 8 5 -0 1 -1 -2 2 12 11 10 11 10 3 -2 2 4 6 8 7
-11 -12 -14 -14 -14 -12 -14 -12 -12 -14 -12 -11 -10 -4 7 8 7 6 6 6 8 10 11 12 12 11 3 5 13 12 11 11 10 8 8 2 2 10 12 11 11 11 10 9 10 8 11 10 11
-3 -8 -8 -13 -13 -12 -13 -10 -13 -14 -15 -13 -12 -8 -5 7 7 6 5 5 7 8 10 11 11 12 9 4 10 13 12 11 11 11 10 8 5 4 11 10 9 11 11 10 11 11 10 11 11
-6 -3 -6 -9 -13 -13 -12 -10 -13 -14 -15 -14 -13 -11 -9 -3 7 6 5 4 5 7 8 9 11 12 10 7 6 12 11 13 12 12 10 10 7 4 4 7 7 9 10 11 11 10 11 10 11
-6 -7 -6 -5 -10 -11 -12 -12 -13 -14 -14 -14 -14 -11 -9 -4 5 6 5 4 3 5 7 8 9 11 11 10 8 9 13 13 13 12 11 9 7 4 3 5 6 8 8 9 10 11 10 10 10
-5 -7 -10 -9 -9 -8 -8 -12 -15 -15 -13 -13 -14 -13 -11 -9 -2 5 5 3 2 4 6 7 8 9 12 11 10 11 9 13 12 11 11 10 8 6 5 2 4 6 9 7 6 9 10 10 9
-5 -4 -4 -8 -10 -9 -7 -8 -13 -15 -13 -13 -14 -16 -13 -12 -9 1 6 4 3 3 5 6 6 8 9 9 7 7 9 10 11 11 11 11 11 8 5 4 1 1 5 7 6 7 9 9 10
-4 -5 -5 -5 -7 -9 -9 -9 -10 -13 -13 -14 -15 -15 -14 -13 -11 -5 3 6 4 4 5 6 5 6 8 7 10 12 12 14 14 13 11 10 10 10 6 5 5 3 3 4 4 5 7 7 7
-3 -7 -7 -7 -6 -3 -8 -6 -6 -10 -11 -11 -13 -15 -16 -14 -12 -11 -5 3 4 5 5 7 6 6 7 8 9 9 10 11 9 9 10 9 10 11 10 9 8 7 6 5 4 4 5 7 8
-7 -7 -7 -7 -6 -3 -3 -2 -8 -8 -8 -9 -10 -14 -14 -13 -13 -13 -11 -5 3 5 6 6 8 9 9 9 10 10 11 11 9 12 12 12 11 11 11 10 9 9 10 8 7 7 6 6 6
-12 -9 -7 -5 -4 -0 -2 -1 -3 -8 -7 -8 -10 -14 -14 -14 -13 -12 -12 -11 -9 -2 0 2 5 8 11 10 9 10 11 10 12 13 13 12 12 12 11 11 11 11 11 11 10 9 9 8 8
-10 -7 -2 -0 0 1 -4 -2 -2 -6 -7 -7 -6 -9 -12 -13 -13 -13 -12 -12 -11 -10 -9 -4 -6 -5 2 11 13 12 10 9 8 12 13 13 13 13 11 11 12 11 10 11 12 12 11 10 10
-6 -7 -2 2 2 -0 -5 -2 -4 -6 -8 -8 -8 -9 -10 -10 -9 -10 -12 -11 -10 -10 -12 -11 -5 -1 -5 -5 3 13 13 13 10 10 13 13 14 13 12 11 10 10 11 12 13 13 12 12 11
-1 -2 -7 -3 -1 0 -4 -6 -6 -6 -7 -7 -7 -9 -9 -9 -9 -9 -9 -9 -9 -9 -8 -6 -8 -9 3 1 1 -0 4 14 13 12 14 13 14 14 14 13 11 11 11 11 13 13 13 13 12
-16 -15 -1 -1 0 2 -2 -3 -4 -4 -5 -7 -7 -6 -8 -9 -8 -8 -8 -9 -8 -7 -6 -5 -4 -1 0 0 -1 -2 -3 5 14 14 15 15 13 14 14 14 13 12 11 11 11 12 12 13 13
-4 -13 -10 -7 -1 2 -1 -3 -6 -5 -4 -5 -6 -9 -8 -10 -6 -4 -4 -5 -4 -3 -3 -3 -0 -0 -1 1 4 2 3 3 12 15 15 14 14 14 14 14 14 12 11 11 11 10 11 13 13
-4 -1 1 5 -2 -3 2 3 -4 -3 -7 -7 -7 -7 -6 -6 -6 -6 -5 -5 -3 -3 -2 -1 -1 2 5 8 9 7 6 6 7 12 15 14 13 13 13 14 14 13 11 10 10 10 12 14 14
Wind_Speed
14 16 18 15 5 7 15 9 12 13 17 18 16 13 19 21 12 12 22 21 19 19 19 17 16 16 16 17 16 14 12 10 10 12 12 13 15 15 14 13 14 15 16 17 17 17 19 19 20
14 8 13 11 7 12 9 25 17 19 20 15 8 19 21 17 20 27 23 20 20 22 20 18 17 17 17 17 15 14 12 10 10 11 12 12 14 14 13 11 12 14 15 16 16 17 18 19 19
15 11 12 5 11 14 4 24 19 18 17 14 12 22 15 15 19 16 25 25 21 23 20 19 18 17 17 18 16 15 13 10 11 11 11 12 13 13 11 10 11 13 14 14 16 17 17 18 18
15 12 12 9 16 21 12 7 15 14 11 9 21 14 14 19 14 19 27 25 22 23 21 19 18 18 17 18 17 16 14 11 12 11 11 12 13 13 11 11 11 13 14 14 15 16 16 16 17
13 12 10 16 19 24 6 9 8 11 7 8 17 20 19 15 18 27 29 24 23 23 22 20 19 18 18 18 17 17 14 13 12 11 12 13 12 12 12 11 12 13 13 14 15 15 15 15 15
12 16 13 14 19 23 9 10 4 5 15 7 27 25 12 17 26 27 26 25 22 23 23 21 20 19 18 18 17 16 15 14 13 12 13 13 12 12 12 12 12 12 13 14 14 13 13 13 14
15 10 16 20 21 23 13 15 5 9 14 14 17 15 17 20 25 28 26 25 24 20 23 23 21 20 19 18 17 16 16 15 13 13 13 14 13 12 12 12 13 13 13 13 12 12 11 11 11
20 9 20 19 17 26 9 11 9 14 14 13 12 10 23 28 28 28 26 26 25 22 23 24 23 22 21 21 19 17 16 15 14 14 13 14 14 13 13 13 13 13 14 13 12 10 10 10 9
21 11 14 20 21 23 7 7 11 12 18 14 10 11 32 34 32 30 28 25 26 23 23 26 25 24 23 22 21 20 19 17 17 16 15 15 14 14 14 13 13 14 14 13 12 10 10 8 8
18 12 22 21 22 17 24 12 13 12 19 13 16 28 37 36 35 35 33 31 29 26 26 29 27 26 25 23 23 23 22 21 19 19 18 17 16 15 14 14 15 15 15 15 13 12 11 10 9
23 19 20 27 31 20 20 11 13 10 16 14 21 30 30 35 33 33 31 32 32 29 26 30 30 28 27 25 25 25 24 24 23 21 20 19 17 15 15 15 16 17 18 17 16 15 14 12 10
23 28 28 29 32 29 17 19 15 13 17 17 25 35 33 32 34 33 31 31 31 31 28 29 31 30 29 24 25 26 26 25 25 25 23 22 19 16 19 18 17 19 20 20 19 18 17 16 14
23 22 30 30 31 26 20 18 20 19 20 25 4 35 36 36 34 32 31 30 31 32 31 30 31 32 31 28 23 28 27 26 25 25 25 25 24 21 19 19 17 19 21 21 21 19 18 18 18
28 28 29 30 28 25 22 20 22 24 20 21 12 18 31 33 34 32 32 33 32 32 34 31 32 32 33 33 28 24 25 24 26 25 26 26 26 23 23 22 22 20 20 21 21 20 18 18 18
30 24 24 22 24 24 27 23 23 26 25 27 21 21 27 32 31 34 35 34 34 34 35 34 34 33 33 36 32 28 28 26 23 26 26 27 28 27 27 24 27 24 20 19 19 19 20 18 20
20 21 22 24 21 23 24 25 22 30 30 31 28 26 27 30 32 35 35 34 34 34 35 34 37 36 34 36 37 33 31 31 29 28 29 28 28 31 30 29 27 27 25 23 25 24 24 26 25
17 19 25 27 25 22 24 26 21 32 31 32 34 29 27 31 33 35 37 37 36 36 36 37 35 39 36 35 39 37 34 33 33 30 31 32 30 31 34 34 31 31 30 29 28 29 29 28 27
22 24 26 26 22 24 26 26 21 30 31 30 34 30 32 32 33 36 36 38 36 37 38 37 36 38 37 36 36 40 36 35 33 35 32 34 34 31 34 36 34 32 32 34 32 31 29 30 28
22 23 28 26 24 24 23 26 25 27 28 29 30 36 36 31 33 36 36 37 36 36 41 38 37 40 40 39 41 41 43 38 38 36 36 34 36 34 32 37 37 35 36 36 34 34 33 31 29
28 28 27 24 25 21 23 25 24 21 20 29 28 33 40 37 31 35 38 35 40 36 41 42 39 38 43 43 41 41 39 39 38 38 37 38 38 38 37 36 40 39 39 39 36 35 35 34 29
28 28 23 24 23 26 21 17 25 18 21 32 35 36 28 31 32 30 36 41 37 41 36 43 42 40 40 43 40 37 35 32 36 39 39 40 40 41 40 39 39 42 42 43 41 39 38 38 35
27 27 26 25 18 17 23 15 19 18 16 18 26 30 31 27 34 32 35 40 42 41 41 38 43 43 40 39 42 42 43 44 44 42 42 41 41 43 44 42 41 41 43 45 45 43 42 40 39
28 25 26 26 21 18 22 14 18 23 21 22 24 27 23 22 26 33 26 25 42 40 42 39 35 40 42 42 42 43 45 44 43 40 42 43 42 44 44 45 44 44 43 45 46 45 44 44 43
28 26 28 25 15 16 22 18 19 18 20 19 20 31 28 32 31 29 33 26 26 31 38 40 43 39 40 46 46 45 45 46 43 40 43 44 45 45 45 45 45 45 45 45 46 45 44 43 43
22 20 14 19 15 16 20 19 17 14 20 20 19 22 31 43 41 41 34 33 35 35 28 35 48 49 50 45 46 48 50 48 47 46 44 44 45 47 48 47 46 46 45 46 45 47 46 45 42
19 21 16 20 16 18 23 23 21 19 29 35 31 26 18 11 5 25 23 18 17 33 42 40 30 47 48 49 54 42 46 51 52 51 46 45 45 47 47 46 45 45 45 45 45 45 46 44 44
15 20 20 22 19 15 14 19 26 24 23 21 24 25 26 17 14 11 9 14 24 25 24 24 38 40 38 42 44 45 46 46 52 51 48 48 42 43 44 45 45 44 43 44 45 46 46 45 43
26 19 14 11 22 23 20 20 13 21 25 23 20 14 24 15 14 14 16 19 22 19 23 20 19 21 22 28 33 38 39 44 48 52 47 43 48 41 41 42 45 45 44 43 45 45 44 44 43
13 15 19 16 11 14 18 17 18 18 12 9 13 27 13 22 6 5 8 9 3 1 6 14 15 17 22 22 21 26 32 35 40 44 47 45 44 44 43 44 47 47 45 44 45 45 44 44 41
16 14 11 7 19 15 13 14 19 21 18 11 9 7 7 7 6 6 9 12 12 10 9 11 23 18 16 13 17 23 28 30 35 42 41 42 44 44 46 47 48 49 48 44 45 46 44 41 40
Wind_Direction
316 321 337 300 255 225 270 299 112 119 88 78 69 67 74 51 39 103 136 155 164 147 144 143 143 148 154 154 155 156 154 149 141 133 127 126 130 129 121 112 116 118 121 122 122 121 117 113 111
325 332 284 279 254 279 44 285 97 88 94 97 93 75 76 65 96 118 126 150 160 147 147 144 144 149 156 161 162 160 160 157 150 144 134 131 132 132 126 121 124 128 127 125 123 121 120 117 115
321 324 291 230 251 256 186 253 96 99 117 115 88 78 62 109 117 124 142 149 151 148 149 146 145 148 155 160 164 165 164 163 156 150 142 140 142 142 136 133 133 133 130 128 127 125 121 119 116
312 287 248 258 269 272 151 242 99 125 135 141 117 93 86 118 127 138 145 151 148 150 152 148 146 148 152 158 163 163 166 168 160 156 154 151 152 152 149 142 140 139 136 135 134 131 127 124 121
286 268 258 267 262 268 291 55 110 143 129 134 118 102 114 114 131 141 147 149 153 153 151 152 149 150 151 156 164 163 166 168 164 162 161 159 156 158 156 153 147 145 142 141 139 134 131 128 126
285 258 265 262 252 256 251 109 263 200 140 149 110 115 114 135 135 146 149 152 158 167 160 159 154 153 155 154 164 169 169 168 168 168 165 165 161 162 159 157 156 154 151 146 141 140 136 134 134
264 278 262 266 275 277 235 142 188 249 158 165 142 128 139 149 149 148 153 156 156 178 170 166 161 159 160 159 164 174 174 172 171 172 171 170 170 167 164 163 163 163 160 156 152 149 147 143 142
266 268 273 272 273 272 135 146 181 251 245 167 150 155 161 157 154 152 156 160 164 188 175 173 170 167 167 166 170 175 181 180 178 176 176 179 178 174 172 172 172 172 172 169 167 161 157 156 157
273 265 257 257 259 270 133 184 181 244 254 153 162 127 157 156 155 155 157 164 175 193 182 181 179 176 174 174 174 179 183 188 186 185 183 184 186 183 180 182 182 184 183 184 185 190 189 181 179
243 247 252 258 268 283 323 202 210 198 243 175 107 121 147 153 159 163 165 170 179 189 189 187 187 184 181 182 182 184 186 190 193 192 189 189 191 192 189 192 192 192 196 195 198 197 193 189 181
250 246 257 268 272 326 306 298 228 208 221 188 138 141 154 161 167 171 174 178 183 186 193 190 193 192 188 188 188 192 193 194 195 199 197 193 193 193 192 208 203 202 203 207 208 207 206 201 192
262 257 254 264 272 285 293 291 283 227 254 236 179 164 166 175 176 179 181 182 183 187 195 195 196 197 194 189 197 198 201 202 201 202 202 200 191 206 204 214 214 213 211 212 215 218 217 218 199
254 261 255 261 266 279 278 282 280 283 237 257 252 170 174 180 185 187 186 185 186 190 195 197 197 199 197 185 211 203 206 208 210 211 209 202 196 203 215 205 226 222 223 218 223 223 227 230 226
258 260 258 257 256 260 253 260 265 268 270 268 235 199 177 187 190 190 191 186 188 195 199 200 200 203 199 190 209 209 202 211 212 216 219 213 204 199 218 206 214 237 224 228 228 228 231 238 244
266 268 268 255 254 247 260 249 241 249 255 264 248 218 193 193 200 198 195 193 192 197 201 206 202 209 203 198 194 215 204 211 216 216 222 223 212 203 221 218 209 223 231 226 240 229 233 235 249
286 253 250 244 237 245 250 250 240 239 240 249 245 234 223 202 204 206 200 196 193 196 201 210 203 211 210 202 195 208 207 205 219 218 221 229 220 213 218 219 217 217 219 229 224 233 224 234 231
255 251 238 245 240 238 234 245 245 255 234 231 244 232 225 229 201 214 202 197 196 193 199 211 208 207 214 211 204 206 210 212 211 223 217 227 232 222 220 224 223 221 218 218 231 232 232 232 238
235 240 243 254 229 238 241 240 233 237 248 248 225 240 226 219 211 209 209 198 202 193 201 213 214 207 216 214 211 210 211 212 221 218 226 222 235 233 225 227 226 224 226 224 222 234 236 236 233
257 257 253 250 244 256 242 234 236 219 238 253 233 221 239 228 215 209 211 204 201 199 198 210 216 210 212 216 214 212 215 213 220 225 224 227 231 238 233 229 232 223 227 231 232 226 233 237 241
238 254 262 272 272 266 240 259 248 225 222 241 251 236 216 230 228 209 206 205 200 202 202 206 220 221 213 221 221 221 219 221 225 226 228 227 229 237 239 236 233 232 228 233 232 230 232 235 232
249 243 248 260 278 282 272 258 254 221 230 246 240 252 221 227 243 217 206 204 202 202 206 205 216 226 224 223 220 221 220 222 223 227 231 231 231 234 242 242 238 234 233 235 237 233 233 237 239
249 246 249 254 256 263 267 246 245 250 255 259 258 244 245 221 228 245 211 205 201 202 207 207 213 222 230 230 227 222 221 218 229 233 233 236 234 235 239 243 244 240 235 236 239 239 237 238 238
246 257 257 244 245 264 272 271 221 235 229 242 252 249 243 245 231 246 248 212 206 204 205 210 212 217 227 234 233 233 223 227 234 226 230 233 238 239 240 242 245 245 240 238 239 240 239 239 242
259 246 245 259 239 239 246 257 259 223 232 237 230 237 240 246 249 249 249 244 232 204 206 214 216 218 225 230 237 234 236 233 227 228 226 231 234 239 242 244 245 246 246 241 241 240 242 243 243
246 251 252 230 227 238 232 249 251 254 256 258 267 304 230 226 223 231 242 242 249 248 243 230 228 228 224 223 231 235 236 238 239 232 228 227 230 232 244 245 244 245 245 246 239 240 239 241 244
247 240 244 250 231 230 227 238 243 266 263 274 283 290 307 317 289 216 220 239 244 239 247 253 244 231 231 229 227 227 241 236 239 241 231 232 232 236 243 247 249 248 247 242 242 236 241 238 242
272 271 254 260 268 269 255 231 221 235 252 265 262 264 276 282 278 266 231 260 263 256 250 252 254 244 226 232 236 235 231 241 241 238 236 229 233 235 239 243 249 249 245 243 238 238 237 241 241
230 261 246 263 249 252 253 258 274 207 227 241 258 252 245 245 289 271 268 264 223 252 250 259 258 233 232 244 254 258 250 234 241 242 232 234 232 232 233 236 245 248 245 242 240 239 239 236 238
300 229 257 274 266 263 250 245 263 277 208 231 250 246 258 237 247 331 312 338 236 254 253 257 267 259 263 253 260 256 255 243 237 240 240 235 236 231 230 232 239 246 246 244 240 239 235 232 232
285 272 272 291 270 246 225 265 284 290 288 288 177 189 174 177 20 300 328 329 310 325 305 261 259 255 259 265 267 257 247 248 242 239 242 246 240 237 230 230 234 243 247 245 240 233 229 226 225
Height
1503 1501 1500 1500 1504 1486 1477 1462 1444 1454 1463 1469 1472 1472 1480 1484 1485 1505 1508 1506 1510 1514 1518 1521 1524 1527 1530 1533 1536 1539 1542 1544 1547 1549 1551 1552 1554 1556 1558 1559 1560 1562 1563 1564 1565 1567 1568 1570 1571
1503 1502 1504 1499 1497 1490 1490 1463 1452 1456 1464 1471 1472 1475 1481 1491 1492 1500 1507 1508 1511 1514 1519 1522 1525 1528 1531 1534 1537 1540 1543 1546 1548 1550 1552 1554 1556 1558 1560 1562 1563 1564 1565 1566 1568 1570 1571 1572 1573
1504 1504 1505 1489 1482 1482 1479 1459 1454 1460 1466 1470 1474 1479 1485 1495 1499 1501 1507 1509 1510 1515 1519 1523 1526 1529 1532 1535 1538 1541 1544 1547 1549 1552 1553 1555 1557 1560 1562 1563 1565 1567 1568 1570 1571 1572 1573 1575 1576
1506 1504 1502 1492 1484 1457 1460 1454 1454 1462 1466 1468 1472 1484 1492 1495 1499 1501 1507 1509 1511 1515 1520 1524 1527 1530 1533 1535 1539 1542 1546 1548 1550 1553 1555 1557 1558 1561 1563 1565 1567 1569 1570 1572 1573 1575 1576 1577 1578
1507 1504 1495 1487 1476 1457 1448 1451 1455 1460 1465 1467 1471 1484 1491 1497 1498 1503 1507 1510 1512 1516 1520 1524 1527 1530 1533 1536 1540 1543 1546 1549 1551 1553 1556 1558 1560 1562 1564 1566 1568 1570 1572 1573 1575 1577 1578 1579 1581
1506 1499 1499 1491 1473 1454 1447 1452 1460 1458 1464 1468 1474 1484 1494 1498 1499 1504 1509 1511 1513 1515 1520 1524 1528 1531 1534 1537 1540 1544 1547 1550 1552 1554 1556 1559 1561 1563 1565 1567 1569 1571 1573 1575 1576 1578 1579 1580 1582
1504 1499 1493 1482 1470 1456 1445 1451 1459 1461 1461 1466 1471 1480 1494 1498 1500 1503 1508 1512 1514 1515 1519 1523 1527 1530 1534 1537 1540 1544 1547 1550 1552 1555 1557 1559 1561 1563 1565 1568 1570 1572 1574 1576 1578 1579 1580 1582 1583
1502 1498 1495 1482 1474 1460 1451 1453 1458 1463 1460 1463 1469 1477 1488 1492 1499 1503 1507 1511 1514 1515 1519 1523 1526 1530 1533 1536 1540 1544 1547 1549 1552 1555 1557 1559 1561 1563 1566 1568 1570 1573 1575 1577 1578 1580 1581 1582 1584
1501 1499 1495 1485 1474 1457 1454 1455 1456 1462 1461 1461 1467 1471 1480 1487 1496 1501 1505 1510 1513 1514 1517 1521 1525 1528 1532 1535 1538 1542 1546 1549 1551 1554 1556 1559 1561 1563 1565 1568 1570 1572 1574 1576 1578 1580 1581 1583 1584
1498 1495 1486 1476 1465 1457 1454 1451 1454 1461 1461 1462 1468 1474 1480 1487 1492 1496 1499 1504 1508 1511 1514 1518 1522 1526 1530 1533 1537 1540 1543 1546 1549 1552 1555 1558 1560 1563 1565 1567 1569 1572 1574 1576 1577 1579 1581 1582 1584
1490 1487 1481 1473 1466 1465 1460 1457 1454 1457 1461 1459 1468 1477 1483 1485 1490 1495 1498 1499 1503 1507 1511 1514 1519 1524 1528 1531 1534 1537 1540 1544 1546 1550 1553 1556 1559 1561 1564 1565 1568 1570 1572 1574 1576 1577 1579 1581 1583
1488 1480 1478 1473 1470 1468 1464 1462 1459 1459 1460 1459 1462 1466 1476 1484 1486 1490 1495 1497 1501 1504 1507 1511 1515 1520 1525 1529 1531 1535 1538 1541 1544 1547 1550 1554 1556 1559 1562 1562 1565 1567 1569 1571 1573 1576 1578 1580 1581
1481 1477 1475 1472 1469 1469 1466 1464 1463 1460 1461 1460 1463 1464 1470 1476 1482 1487 1491 1495 1499 1502 1504 1507 1511 1515 1521 1526 1528 1532 1535 1538 1541 1544 1547 1550 1553 1556 1559 1561 1562 1564 1566 1569 1571 1573 1575 1577 1578
1475 1471 1469 1466 1465 1466 1465 1465 1467 1463 1461 1460 1463 1466 1469 1474 1477 1483 1487 1490 1494 1498 1501 1505 1508 1511 1516 1521 1525 1528 1531 1534 1538 1541 1543 1547 1550 1554 1556 1559 1561 1561 1563 1565 1568 1570 1572 1573 1575
1473 1471 1464 1459 1462 1463 1464 1461 1460 1465 1464 1461 1459 1462 1465 1470 1475 1477 1481 1485 1488 1493 1497 1500 1505 1508 1512 1517 1522 1524 1528 1530 1534 1537 1540 1542 1546 1550 1552 1555 1558 1559 1561 1563 1565 1568 1570 1571 1572
1477 1466 1467 1454 1458 1458 1462 1456 1455 1460 1462 1459 1458 1457 1461 1463 1468 1473 1477 1482 1484 1489 1492 1496 1501 1504 1508 1512 1517 1521 1525 1528 1529 1533 1535 1537 1541 1544 1547 1550 1553 1556 1559 1560 1562 1564 1566 1568 1569
1472 1470 1458 1454 1450 1451 1452 1452 1451 1452 1452 1453 1453 1451 1454 1458 1460 1468 1471 1476 1480 1484 1488 1491 1496 1499 1503 1508 1513 1516 1520 1523 1526 1527 1531 1532 1535 1540 1542 1544 1547 1551 1554 1556 1558 1560 1561 1563 1564
1470 1462 1455 1445 1442 1446 1443 1440 1442 1445 1445 1444 1446 1446 1447 1449 1453 1460 1465 1469 1475 1478 1482 1487 1491 1496 1499 1504 1508 1512 1515 1518 1520 1523 1524 1527 1528 1532 1537 1539 1542 1546 1548 1550 1553 1554 1556 1557 1560
1458 1454 1446 1434 1435 1436 1431 1431 1428 1433 1437 1436 1435 1439 1441 1442 1447 1451 1458 1463 1469 1474 1475 1480 1485 1489 1494 1497 1500 1504 1505 1511 1514 1516 1519 1522 1523 1525 1530 1533 1535 1540 1541 1543 1546 1549 1551 1552 1555
1458 1459 1447 1438 1430 1429 1425 1423 1417 1421 1426 1430 1428 1429 1432 1437 1440 1444 1449 1456 1461 1468 1470 1472 1478 1483 1487 1489 1493 1497 1501 1504 1507 1511 1514 1516 1518 1519 1521 1525 1528 1530 1534 1536 1539 1542 1544 1547 1550
1448 1447 1446 1447 1440 1428 1425 1425 1418 1413 1421 1424 1423 1423 1424 1429 1433 1437 1441 1447 1453 1460 1465 1468 1471 1475 1480 1484 1489 1494 1499 1502 1503 1504 1505 1507 1510 1512 1513 1516 1520 1523 1526 1528 1531 1535 1537 1538 1542
1445 1439 1441 1442 1449 1451 1425 1437 1422 1417 1418 1419 1418 1419 1419 1423 1429 1432 1434 1438 1444 1450 1458 1463 1467 1469 1473 1478 1481 1484 1485 1488 1489 1492 1496 1499 1502 1505 1507 1508 1512 1515 1519 1520 1523 1526 1529 1532 1533
1437 1440 1435 1433 1441 1445 1439 1438 1414 1416 1419 1420 1416 1415 1416 1420 1424 1426 1430 1433 1437 1443 1450 1457 1463 1463 1467 1470 1473 1476 1479 1481 1484 1488 1490 1492 1494 1496 1499 1501 1503 1505 1509 1512 1515 1517 1520 1522 1525
1432 1432 1432 1429 1431 1448 1437 1438 1419 1411 1409 1408 1408 1412 1415 1418 1421 1424 1425 1429 1433 1439 1442 1447 1453 1458 1459 1461 1464 1467 1469 1474 1477 1479 1482 1483 1486 1488 1490 1493 1495 1497 1500 1503 1505 1509 1511 1513 1516
1428 1433 1440 1441 1439 1438 1430 1435 1420 1406 1406 1407 1405 1407 1407 1408 1413 1417 1422 1422 1426 1431 1437 1440 1443 1447 1451 1453 1452 1456 1460 1464 1466 1469 1472 1475 1476 1478 1479 1482 1486 1487 1489 1492 1498 1500 1503 1505 1507
1426 1427 1435 1444 1435 1427 1419 1427 1418 1412 1412 1408 1408 1408 1406 1406 1408 1411 1416 1420 1424 1427 1431 1434 1439 1439 1441 1444 1447 1447 1450 1453 1458 1461 1464 1467 1468 1469 1472 1474 1477 1479 1482 1485 1488 1492 1493 1497 1499
1440 1431 1420 1425 1419 1422 1408 1401 1404 1408 1409 1405 1403 1407 1407 1407 1410 1412 1414 1417 1420 1424 1426 1430 1430 1430 1433 1436 1438 1442 1446 1445 1447 1451 1454 1458 1462 1463 1464 1465 1468 1471 1473 1476 1479 1481 1484 1487 1490
1423 1423 1432 1427 1436 1438 1420 1414 1404 1399 1401 1401 1400 1400 1403 1406 1409 1410 1415 1418 1419 1422 1422 1425 1426 1426 1428 1431 1432 1433 1436 1439 1439 1442 1445 1448 1452 1456 1457 1458 1459 1462 1465 1467 1470 1472 1476 1478 1481
1430 1426 1425 1424 1432 1434 1426 1412 1396 1392 1396 1400 1399 1398 1400 1403 1408 1411 1412 1414 1417 1416 1417 1420 1421 1422 1423 1423 1426 1427 1428 1431 1435 1434 1436 1440 1443 1446 1450 1450 1450 1452 1455 1459 1461 1462 1466 1469 1472
1442 1442 1459 1453 1426 1420 1432 1431 1401 1395 1393 1396 1397 1398 1400 1403 1407 1411 1413 1414 1414 1415 1417 1419 1420 1420 1420 1420 1422 1422 1424 1425 1427 1428 1429 1431 1433 1436 1439 1441 1441 1442 1444 1448 1450 1453 1456 1460 1463